GW4912 Weather Reports


time (UTC)temp
C
wind
direction
speed
KPH
gust
KPH
rain 1hr
cm
rain 24hr
cm
rain mn
cm
humidity
%
barometer
mb
20260502152022 7 137 4.8 11.3 0.00 0.20 0.20 75 1017.8
20260502151519 7 149 3.2 3.2 0.00 0.20 0.20 78 1017.7
20260502151016 7 136 1.6 4.8 0.00 0.20 0.20 81 1017.8
20260502150514 6 149 3.2 4.8 0.00 0.20 0.20 83 1017.8
20260502130358 2 120 3.2 11.3 0.00 0.20 0.20 97 1017.2
20260502123341 2 143 3.2 11.3 0.05 0.20 0.20 97 1017.3
20260502122838 2 66 0.0 4.8 0.05 0.20 0.20 97 1017.2
20260502122333 2 140 6.4 9.7 0.05 0.18 0.18 97 1017.1
20260502121833 2 120 3.2 12.9 0.13 0.18 0.18 97 1017.3
20260502121329 2 149 8.0 14.5 0.05 0.18 0.18 97 1016.9
20260502120826 2 149 3.2 6.4 0.05 0.18 0.18 97 1017.1
20260502120323 2 144 3.2 14.5 0.05 0.15 0.15 97 1017.0
20260502115820 2 92 3.2 4.8 0.05 0.15 0.15 97 1016.8
20260502115317 2 145 6.4 8.0 0.05 0.15 0.15 97 1016.9
20260502114814 2 140 3.2 3.2 0.05 0.15 0.15 97 1016.8
20260502114310 2 117 3.2 6.4 0.00 0.15 0.15 97 1016.7
20260502113808 2 147 3.2 3.2 0.00 0.15 0.15 97 1016.7
20260502113305 2 102 0.0 3.2 0.05 0.15 0.15 97 1016.7
20260502112803 2 98 3.2 4.8 0.05 0.15 0.15 97 1016.6
20260502112300 2 170 3.2 6.4 0.05 0.13 0.13 97 1016.6
20260502111757 2 120 1.6 3.2 0.18 0.13 0.13 97 1016.6
20260502111255 2 152 4.8 4.8 0.23 0.13 0.13 97 1016.7
20260502110752 2 166 0.0 8.0 0.30 0.10 0.10 97 1016.5
20260502110250 2 161 1.6 6.4 0.30 0.08 0.08 97 1016.5
20260502105748 2 141 3.2 4.8 0.18 0.05 0.05 97 1016.4
20260502105244 2 35 0.0 6.4 0.13 0.03 0.03 97 1016.2
20260502104742 2 155 0.0 3.2 0.00 0.00 0.00 97 1016.2
20260502104239 2 131 0.0 3.2 0.05 0.00 0.00 97 1016.2
20260502103737 1 124 0.0 1.6 0.05 0.00 0.00 97 1016.0
20260502103234 2 58 0.0 4.8 0.00 0.00 0.00 97 1016.1
20260502102731 1 40 1.6 4.8 0.00 0.00 0.00 97 1016.2
20260502102227 2 339 4.8 4.8 0.00 0.00 0.00 97 1015.9
20260502101726 3 344 0.0 4.8 0.00 0.00 0.00 97 1015.9
20260502101224 3 339 0.0 3.2 0.00 0.00 0.00 97 1015.7
20260502100721 3 59 0.0 3.2 0.00 0.00 0.00 97 1015.7
20260502100220 3 202 0.0 3.2 0.00 0.00 0.00 97 1015.9
20260502091154 3 119 0.0 1.6 0.00 0.00 0.00 97 1015.4
20260502090651 3 135 0.0 1.6 0.00 0.00 0.00 97 1015.4
20260502090148 3 60 0.0 0.0 0.00 0.00 0.00 97 1015.4
20260502071049 3 55 0.0 0.0 0.00 0.00 0.00 97 1015.4
20260502070547 3 44 0.0 1.6 0.00 0.00 0.00 97 1015.6
20260502070045 3 66 0.0 1.6 0.00 0.00 0.00 97 1015.7
20260502065543 2 32 0.0 4.8 0.00 0.00 0.00 97 1015.6
20260502065040 2 141 0.0 3.2 0.00 0.00 0.00 97 1015.7
20260502064539 2 150 3.2 3.2 0.00 0.00 0.00 97 1015.8
20260502064035 3 118 0.0 1.6 0.00 0.00 0.00 97 1015.6
20260502063533 3 150 4.8 4.8 0.00 0.00 0.00 97 1015.6
20260502063031 3 126 0.0 0.0 0.00 0.00 0.00 97 1015.7
20260502062528 3 145 0.0 1.6 0.00 0.00 0.00 97 1015.7
20260502062026 3 77 0.0 3.2 0.00 0.00 0.00 97 1015.8
20260502061524 3 75 0.0 1.6 0.00 0.00 0.00 97 1015.7
20260502061021 3 99 0.0 3.2 0.00 0.00 0.00 97 1016.0
20260502060516 3 148 0.0 4.8 0.00 0.00 0.00 97 1015.9
20260502060013 3 183 1.6 3.2 0.00 0.00 0.00 97 1015.9
20260502055510 3 72 1.6 3.2 0.00 0.00 0.00 97 1016.2
20260502055009 3 144 3.2 8.0 0.00 0.00 0.00 97 1016.1
20260502054507 3 132 4.8 8.0 0.00 0.00 0.00 97 1016.3
20260502054004 3 113 3.2 6.4 0.00 0.00 0.00 97 1016.3
20260502053501 3 70 1.6 8.0 0.00 0.00 0.00 97 1016.2
20260502052959 3 60 0.0 3.2 0.00 0.00 0.00 97 1016.1
20260502052456 3 138 1.6 3.2 0.00 0.00 0.00 97 1016.2
20260502051955 3 159 1.6 4.8 0.00 0.00 0.00 97 1016.2
20260502051452 3 164 0.0 4.8 0.00 0.00 0.00 97 1016.3
20260502050949 3 139 3.2 4.8 0.00 0.00 0.00 97 1016.2
20260502050446 3 67 0.0 1.6 0.00 0.00 0.00 97 1016.2
20260502045943 3 43 0.0 1.6 0.00 0.00 0.00 97 1016.1
20260502045439 3 124 0.0 1.6 0.00 0.00 0.00 97 1016.1
20260502044937 3 124 0.0 1.6 0.00 0.00 0.00 97 1016.2
20260502044432 3 212 0.0 6.4 0.00 0.00 0.00 97 1016.3
20260502043930 3 199 1.6 3.2 0.00 0.00 0.00 97 1016.3
20260502043427 3 114 0.0 3.2 0.00 0.00 0.00 97 1016.2
20260502042927 3 76 0.0 3.2 0.00 0.00 0.00 97 1016.3
20260502042424 3 29 0.0 1.6 0.00 0.00 0.00 97 1016.5
20260502041921 3 89 0.0 3.2 0.00 0.00 0.00 97 1016.2
20260502041419 4 209 0.0 1.6 0.00 0.00 0.00 97 1016.2
20260502040916 4 202 0.0 1.6 0.00 0.00 0.00 96 1016.3
20260502040412 4 124 0.0 0.0 0.00 0.00 0.00 96 1016.5
20260502035909 4 212 0.0 1.6 0.00 0.86 0.86 96 1016.4
20260502035405 4 110 0.0 1.6 0.00 0.86 0.86 96 1016.2
20260502034903 4 62 0.0 1.6 0.00 0.86 0.86 96 1016.3
20260502034401 4 22 0.0 0.0 0.00 0.86 0.86 96 1016.3
20260502033900 4 45 0.0 1.6 0.00 0.86 0.86 96 1016.3
20260502033356 4 35 0.0 1.6 0.00 0.86 0.86 96 1016.2
20260502032853 4 224 0.0 0.0 0.00 0.86 0.86 96 1016.3
20260502032349 3 242 0.0 1.6 0.00 0.86 0.86 95 1016.3
20260502031847 3 246 0.0 3.2 0.00 0.86 0.86 95 1016.4
20260502031345 3 36 1.6 3.2 0.00 0.86 0.86 95 1016.4
20260502030843 3 60 0.0 1.6 0.00 0.86 0.86 95 1016.2
20260502030341 3 170 3.2 6.4 0.00 0.86 0.86 95 1016.2
20260502025838 3 119 0.0 3.2 0.05 0.86 0.86 94 1016.0
20260502025336 4 166 0.0 4.8 0.05 0.86 0.86 94 1016.0
20260502024833 4 126 4.8 8.0 0.30 0.86 0.86 94 1016.1
20260502024331 4 103 3.2 3.2 0.53 0.86 0.86 94 1016.2
20260502023829 5 84 1.6 4.8 0.30 0.81 0.81 93 1016.2
20260502023326 5 143 6.4 8.0 0.05 0.76 0.76 93 1016.1
20260502022824 5 116 3.2 16.1 0.05 0.76 0.76 92 1015.9
20260502022320 5 117 6.4 11.3 0.13 0.76 0.76 92 1015.9
20260502021817 5 69 1.6 3.2 0.05 0.74 0.74 92 1016.0
20260502021314 5 147 0.0 0.0 0.00 0.74 0.74 92 1015.7
20260502020811 5 168 0.0 0.0 0.00 0.74 0.74 91 1015.8
20260502020309 5 168 0.0 0.0 0.00 0.74 0.74 91 1015.8
20260502015806 5 168 0.0 0.0 0.00 0.74 0.74 91 1015.4
20260502015305 5 168 0.0 0.0 0.00 0.74 0.74 91 1015.7
20260502014800 5 22 0.0 0.0 0.00 0.74 0.74 91 1015.4
20260502014257 5 22 0.0 0.0 0.00 0.74 0.74 91 1015.6
20260502013753 5 72 0.0 0.0 0.00 0.74 0.74 91 1015.4
20260502013249 5 72 0.0 0.0 0.00 0.74 0.74 91 1015.3
20260502012745 5 44 0.0 0.0 0.00 0.74 0.74 91 1015.4
20260502012243 5 66 0.0 0.0 0.00 0.74 0.74 91 1015.1
20260502011741 5 22 0.0 1.6 0.00 0.74 0.74 91 1015.1
20260502011236 5 55 0.0 0.0 0.00 0.74 0.74 90 1015.0
20260502010734 5 38 0.0 0.0 0.00 0.74 0.74 90 1015.2
20260502010230 5 89 0.0 0.0 0.00 0.74 0.74 90 1015.1
20260502005727 5 44 0.0 1.6 0.00 0.74 0.74 90 1015.2
20260502005225 5 173 0.0 0.0 0.00 0.74 0.74 90 1015.0
20260502004721 5 44 0.0 3.2 0.00 0.74 0.74 90 1015.0
20260502004218 5 355 0.0 0.0 0.00 0.74 0.74 89 1015.2
20260502003716 5 66 0.0 0.0 0.00 0.74 0.74 89 1015.0
20260502003213 5 49 0.0 0.0 0.00 0.74 0.74 88 1014.9
20260502002708 5 52 0.0 0.0 0.00 0.74 0.74 87 1014.8
20260502002207 5 53 0.0 0.0 0.00 0.74 0.74 87 1014.7
20260502001703 5 53 0.0 0.0 0.00 0.74 0.74 86 1014.8
20260502001201 5 53 0.0 0.0 0.00 0.74 0.74 86 1014.7
20260502000658 6 63 0.0 0.0 0.00 0.74 0.74 85 1014.7
20260502000156 6 63 0.0 0.0 0.00 0.74 0.74 84 1014.6
20260501235652 6 257 0.0 0.0 0.00 0.74 0.74 83 1014.6
20260501235148 6 36 0.0 1.6 0.00 0.74 0.74 82 1014.5
20260501234644 6 55 0.0 0.0 0.00 0.74 0.74 80 1014.5
20260501234141 6 40 0.0 0.0 0.00 0.74 0.74 79 1014.4
20260501233639 7 77 0.0 1.6 0.00 0.74 0.74 79 1014.2
20260501233136 7 25 0.0 0.0 0.00 0.74 0.74 78 1014.4
20260501232632 7 160 1.6 3.2 0.00 0.74 0.74 77 1014.5
20260501232130 7 357 3.2 3.2 0.00 0.74 0.74 77 1014.6
20260501231627 7 351 0.0 0.0 0.00 0.74 0.74 77 1014.4
20260501231125 7 38 0.0 1.6 0.00 0.74 0.74 75 1014.4
20260501230624 7 63 0.0 4.8 0.00 0.74 0.74 73 1014.4
20260501230121 7 145 1.6 4.8 0.00 0.74 0.74 71 1014.3
20260501225619 8 113 0.0 3.2 0.00 0.74 0.74 72 1014.3
20260501225115 8 129 0.0 1.6 0.00 0.74 0.74 74 1014.6
20260501224612 8 138 0.0 3.2 0.00 0.74 0.74 74 1014.3
20260501224109 8 137 0.0 4.8 0.00 0.74 0.74 75 1014.3
20260501223606 7 128 0.0 1.6 0.00 0.74 0.74 76 1014.2
20260501223102 7 24 0.0 1.6 0.00 0.74 0.74 76 1014.3
20260501222558 8 49 0.0 1.6 0.00 0.74 0.74 76 1014.3
20260501222055 8 132 1.6 1.6 0.00 0.74 0.74 75 1014.5
20260501221552 8 35 0.0 0.0 0.00 0.74 0.74 73 1014.4
20260501221049 8 112 1.6 6.4 0.00 0.74 0.74 72 1014.4
20260501220547 8 81 0.0 3.2 0.00 0.74 0.74 73 1014.1
20260501220044 7 153 0.0 8.0 0.00 0.74 0.74 73 1014.3
20260501215540 7 153 0.0 6.4 0.00 0.74 0.74 73 1014.4
20260501215035 8 126 0.0 3.2 0.00 0.74 0.74 74 1014.2
20260501214531 8 31 0.0 4.8 0.00 0.74 0.74 74 1014.1
20260501214027 7 125 0.0 3.2 0.00 0.74 0.74 75 1014.2
20260501213524 7 87 1.6 3.2 0.00 0.74 0.74 75 1014.1
20260501213020 7 97 3.2 6.4 0.00 0.74 0.74 75 1014.3
20260501212516 7 111 1.6 12.9 0.00 0.74 0.74 75 1014.1
20260501212014 8 101 3.2 8.0 0.00 0.74 0.74 74 1014.2
20260501211510 8 36 1.6 3.2 0.00 0.74 0.74 74 1014.1
20260501211008 8 137 3.2 9.7 0.00 0.74 0.74 73 1013.8
20260501210504 8 82 3.2 12.9 0.00 0.74 0.74 72 1013.9
20260501210001 10 99 3.2 3.2 0.00 0.74 0.74 75 1013.9
20260501205458 8 119 0.0 4.8 0.00 0.74 0.74 76 1013.9
20260501204955 7 96 0.0 6.4 0.00 0.74 0.74 77 1013.6
20260501204451 7 181 1.6 4.8 0.00 0.74 0.74 78 1013.7
20260501203947 7 231 0.0 8.0 0.00 0.74 0.74 79 1013.8
20260501203444 7 193 1.6 8.0 0.00 0.74 0.74 79 1013.6
20260501202942 7 186 3.2 6.4 0.00 0.74 0.74 82 1013.6
20260501202438 7 137 3.2 6.4 0.00 0.74 0.74 84 1013.7
20260501201934 6 145 4.8 9.7 0.00 0.74 0.74 85 1013.8
20260501201432 6 154 6.4 8.0 0.00 0.74 0.74 85 1013.4
20260501200929 6 123 3.2 4.8 0.00 0.74 0.74 86 1013.6
20260501200426 6 177 3.2 4.8 0.00 0.74 0.74 86 1013.6
20260501195923 6 106 3.2 12.9 0.00 0.74 0.74 86 1013.5
20260501195420 6 157 8.0 8.0 0.00 0.74 0.74 87 1013.5
20260501194915 6 172 1.6 4.8 0.00 0.74 0.74 87 1013.6
20260501194412 6 62 0.0 11.3 0.00 0.74 0.74 88 1013.3
20260501193908 6 123 8.0 14.5 0.00 0.74 0.74 90 1013.5
20260501193406 6 129 3.2 8.0 0.00 0.74 0.74 91 1013.4
20260501192903 6 122 3.2 9.7 0.00 0.74 0.74 92 1013.5
20260501192400 6 144 3.2 8.0 0.00 0.74 0.74 92 1013.5
20260501191857 5 165 3.2 14.5 0.00 0.74 0.74 93 1013.5
20260501191355 5 151 3.2 9.7 0.00 0.74 0.74 93 1013.5
20260501190852 5 154 8.0 14.5 0.00 0.74 0.74 93 1013.5
20260501190347 5 134 14.5 19.3 0.05 0.74 0.74 93 1013.2
20260501185842 6 134 4.8 14.5 0.05 0.74 0.74 94 1013.4
20260501185339 6 71 4.8 11.3 0.00 0.74 0.74 94 1013.5
20260501184835 6 167 9.7 12.9 0.00 0.74 0.74 94 1013.2
20260501184331 6 87 4.8 9.7 0.05 0.74 0.74 95 1013.0
20260501183826 6 125 4.8 12.9 0.00 0.71 0.71 95 1013.2
20260501183324 6 164 6.4 11.3 0.05 0.71 0.71 95 1013.2
20260501182820 6 145 1.6 12.9 0.13 0.71 0.71 95 1013.1
20260501182317 6 105 3.2 8.0 0.13 0.71 0.71 95 1012.9
20260501181814 5 164 6.4 12.9 0.13 0.71 0.71 95 1013.0
20260501181311 5 147 8.0 8.0 0.13 0.69 0.69 95 1013.0
20260501180809 5 162 4.8 9.7 0.05 0.69 0.69 95 1012.9
20260501180304 5 132 4.8 14.5 0.05 0.66 0.66 95 1012.9
20260501175802 5 141 3.2 8.0 0.05 0.66 0.66 95 1012.8
20260501175259 5 166 3.2 6.4 0.05 0.66 0.66 95 1012.8
20260501174755 5 136 9.7 9.7 0.05 0.66 0.66 95 1012.8
20260501174252 5 56 3.2 6.4 0.00 0.66 0.66 95 1012.6
20260501173750 5 147 11.3 11.3 0.05 0.66 0.66 95 1012.8
20260501173247 6 80 4.8 6.4 0.05 0.66 0.66 95 1012.5
20260501172743 5 157 4.8 9.7 0.00 0.64 0.64 95 1012.5
20260501172238 5 119 6.4 11.3 0.05 0.64 0.64 95 1012.4
20260501171734 6 119 6.4 9.7 0.05 0.64 0.64 95 1012.6
20260501171232 5 52 3.2 12.9 0.00 0.64 0.64 95 1012.4
20260501170728 5 96 1.6 9.7 0.00 0.64 0.64 95 1012.5
20260501170225 5 87 1.6 6.4 0.00 0.64 0.64 95 1012.7
20260501165723 5 164 8.0 11.3 0.05 0.64 0.64 95 1012.4
20260501165220 5 67 1.6 8.0 0.05 0.64 0.64 95 1012.5
20260501164718 6 145 8.0 8.0 0.00 0.61 0.61 95 1012.3
20260501164215 5 101 3.2 6.4 0.00 0.61 0.61 96 1012.5
20260501163711 5 157 3.2 8.0 0.00 0.61 0.61 96 1012.5
20260501163208 6 66 3.2 6.4 0.05 0.61 0.61 96 1012.6
20260501162704 6 87 0.0 6.4 0.05 0.61 0.61 96 1012.4
20260501162200 6 109 1.6 4.8 0.05 0.61 0.61 96 1012.4
20260501161658 5 144 4.8 9.7 0.05 0.61 0.61 96 1012.6
20260501161154 6 94 1.6 9.7 0.13 0.61 0.61 96 1012.6
20260501160651 6 136 0.0 6.4 0.13 0.58 0.58 96 1012.2
20260501160148 6 158 3.2 8.0 0.13 0.58 0.58 96 1012.4
20260501155645 5 160 4.8 9.7 0.13 0.56 0.56 96 1012.4
20260501155142 5 172 3.2 9.7 0.13 0.56 0.56 96 1012.4